Location: Cucq
(50.4773°N, 1.6202°E)
Time: 06:30:49
(UTC+00:00)

USA 267 - Pass Details

Date: 07 August 2020
Orbit: 1101 x 1106 km, 123.0° (Epoch: 22 September)

Event Time Altitude Azimuth Distance (km) Brightness Sun altitude
Rises 02:13:36 0° 119° (ESE) 3,912 6.2 -17.0°
Reaches altitude 10° 02:16:04 10° 119° (ESE) 2,957 5.6 -16.8°
Maximum altitude 02:22:37 90° 189° (S) 1,109 3.2 -16.2°
Drops below altitude 10° 02:29:12 10° 301° (WNW) 2,970 5.5 -15.5°
Sets 02:31:41 0° 302° (WNW) 3,931 6.1 -15.3°
